When you browse on this site, cookies collect data to enhance your experience and personalize the content and advertising you see.
Visit our Privacy Policy to learn more. By continuing to use the site, you agree to this use of cookies and data.
  • In United Kingdom
  • List of Countries
  • For 7 days
  • Water Temperature
  • Satellite Maps
  • Weather Map
  • Weather Widgets
  • user-avatar
    Login

    Hourly Weather Nuwejba

    Today, 22 March, Friday

    Time Temperature Precipitation Wind Pressure Humidity
    00:00 +13°C° 0 mm 3 mps 692 mmHg 55%
    01:00 +14°C° 0 mm 2 mps 692 mmHg 57%
    02:00 +12°C° 0 mm 3 mps 691 mmHg 59%
    03:00 +11°C° 0 mm 3 mps 691 mmHg 56%
    04:00 +11°C° 0 mm 3 mps 691 mmHg 54%
    05:00 +12°C° 0 mm 2 mps 691 mmHg 52%
    06:00 +13°C° 0 mm 2 mps 692 mmHg 46%
    07:00 +14°C° 0 mm 2 mps 692 mmHg 41%
    08:00 +14°C° 0 mm 3 mps 692 mmHg 34%
    09:00 +17°C° 0 mm 3 mps 692 mmHg 29%
    10:00 +18°C° 0 mm 3 mps 693 mmHg 25%
    11:00 +20°C° 0 mm 4 mps 693 mmHg 20%
    12:00 +21°C° 0 mm 4 mps 693 mmHg 18%
    13:00 +22°C° 0 mm 4 mps 692 mmHg 16%
    14:00 +22°C° 0 mm 5 mps 692 mmHg 14%
    15:00 +22°C° 0 mm 5 mps 692 mmHg 15%
    16:00 +21°C° 0 mm 5 mps 692 mmHg 16%
    17:00 +21°C° 0 mm 5 mps 691 mmHg 17%
    18:00 +20°C° 0 mm 4 mps 691 mmHg 20%
    19:00 +19°C° 0 mm 3 mps 691 mmHg 23%
    20:00 +17°C° 0 mm 2 mps 692 mmHg 26%
    21:00 +17°C° 0 mm 2 mps 692 mmHg 27%
    22:00 +17°C° 0 mm 2 mps 692 mmHg 29%
    23:00 +16°C° 0 mm 2 mps 692 mmHg 30%

    Tomorrow, 23 March, Saturday

    Time Temperature Precipitation Wind Pressure Humidity
    00:00 +16°C° 0 mm 2 mps 691 mmHg 32%
    01:00 +15°C° 0 mm 2 mps 691 mmHg 35%
    02:00 +14°C° 0 mm 1 mps 691 mmHg 38%
    03:00 +14°C° 0 mm 1 mps 690 mmHg 37%
    04:00 +14°C° 0 mm 1 mps 690 mmHg 37%
    05:00 +14°C° 0 mm 2 mps 690 mmHg 37%
    06:00 +15°C° 0 mm 1 mps 690 mmHg 34%
    07:00 +16°C° 0 mm 1 mps 690 mmHg 32%
    08:00 +18°C° 0 mm 1 mps 691 mmHg 29%
    09:00 +19°C° 0 mm 1 mps 691 mmHg 26%
    10:00 +20°C° 0 mm 1 mps 691 mmHg 23%
    11:00 +21°C° 0 mm 1 mps 691 mmHg 20%
    12:00 +21°C° 0 mm 2 mps 690 mmHg 21%
    13:00 +21°C° 0 mm 2 mps 690 mmHg 22%
    14:00 +21°C° 0 mm 3 mps 690 mmHg 22%
    15:00 +21°C° 0 mm 3 mps 690 mmHg 25%
    16:00 +20°C° 0 mm 3 mps 689 mmHg 28%
    17:00 +20°C° 0 mm 3 mps 689 mmHg 31%
    18:00 +19°C° 0 mm 2 mps 689 mmHg 34%
    19:00 +18°C° 0 mm 2 mps 689 mmHg 36%
    20:00 +17°C° 0 mm 2 mps 689 mmHg 39%
    21:00 +17°C° 0.1 mm 2 mps 688 mmHg 41%
    22:00 +16°C° 0.1 mm 1 mps 688 mmHg 42%
    23:00 +16°C° 0.1 mm 1 mps 687 mmHg 44%

    Day after tomorrow, 24 March, Sunday

    Time Temperature Precipitation Wind Pressure Humidity
    00:00 +16°C° 0 mm 1 mps 687 mmHg 45%
    01:00 +15°C° 0 mm 1 mps 686 mmHg 46%
    02:00 +15°C° 0 mm 1 mps 685 mmHg 46%
    03:00 +15°C° 0 mm 1 mps 685 mmHg 46%
    04:00 +15°C° 0 mm 1 mps 685 mmHg 45%
    05:00 +15°C° 0 mm 1 mps 684 mmHg 44%
    06:00 +16°C° 0 mm 1 mps 685 mmHg 42%
    07:00 +18°C° 0 mm 1 mps 685 mmHg 39%
    08:00 +19°C° 0 mm 1 mps 685 mmHg 36%
    09:00 +20°C° 0 mm 1 mps 685 mmHg 33%
    10:00 +20°C° 0 mm 2 mps 685 mmHg 31%
    11:00 +21°C° 0 mm 2 mps 685 mmHg 29%
    12:00 +22°C° 0 mm 3 mps 685 mmHg 28%
    13:00 +24°C° 0 mm 3 mps 684 mmHg 26%
    14:00 +23°C° 0 mm 4 mps 684 mmHg 24%
    15:00 +22°C° 0 mm 6 mps 683 mmHg 25%
    16:00 +21°C° 0 mm 7 mps 683 mmHg 26%
    17:00 +20°C° 0 mm 8 mps 683 mmHg 27%
    18:00 +17°C° 0 mm 7 mps 684 mmHg 30%
    19:00 +16°C° 0 mm 7 mps 684 mmHg 33%
    20:00 +15°C° 0 mm 6 mps 684 mmHg 36%
    21:00 +14°C° 0 mm 5 mps 684 mmHg 38%
    22:00 +14°C° 0 mm 3 mps 684 mmHg 39%
    23:00 +14°C° 0 mm 2 mps 684 mmHg 41%

    25 March, Monday

    Time Temperature Precipitation Wind Pressure Humidity
    00:00 +14°C° 0 mm 2 mps 684 mmHg 42%
    01:00 +13°C° 0 mm 2 mps 684 mmHg 43%
    02:00 +13°C° 0 mm 2 mps 684 mmHg 44%
    03:00 +11°C° 0 mm 3 mps 683 mmHg 50%
    04:00 +11°C° 0 mm 3 mps 683 mmHg 55%
    05:00 +10°C° 0 mm 4 mps 683 mmHg 61%
    06:00 +9°C° 0 mm 5 mps 684 mmHg 58%
    07:00 +9°C° 0 mm 6 mps 684 mmHg 54%
    08:00 +10°C° 0 mm 7 mps 684 mmHg 50%
    09:00 +11°C° 0 mm 7 mps 685 mmHg 46%
    10:00 +12°C° 0 mm 8 mps 685 mmHg 41%
    11:00 +13°C° 0 mm 8 mps 685 mmHg 37%
    12:00 +13°C° 0 mm 9 mps 685 mmHg 34%
    13:00 +14°C° 0 mm 10 mps 685 mmHg 31%
    14:00 +14°C° 0 mm 11 mps 685 mmHg 28%
    15:00 +13°C° 0 mm 10 mps 685 mmHg 29%
    16:00 +13°C° 0 mm 9 mps 686 mmHg 30%
    17:00 +12°C° 0 mm 9 mps 686 mmHg 32%
    18:00 +11°C° 0 mm 8 mps 686 mmHg 34%
    19:00 +10°C° 0 mm 7 mps 687 mmHg 37%
    20:00 +10°C° 0 mm 6 mps 687 mmHg 39%
    21:00 +9°C° 0 mm 5 mps 687 mmHg 41%
    22:00 +10°C° 0 mm 4 mps 688 mmHg 43%
    23:00 +8°C° 0 mm 4 mps 688 mmHg 45%

    26 March, Tuesday

    Time Temperature Precipitation Wind Pressure Humidity
    00:00 +8°C° 0 mm 3 mps 688 mmHg 48%
    01:00 +8°C° 0 mm 2 mps 688 mmHg 51%
    02:00 +8°C° 0 mm 1 mps 688 mmHg 54%
    03:00 +7°C° 0 mm 2 mps 688 mmHg 55%
    04:00 +7°C° 0 mm 2 mps 688 mmHg 57%
    05:00 +7°C° 0 mm 2 mps 688 mmHg 59%
    06:00 +7°C° 0 mm 2 mps 689 mmHg 55%
    07:00 +8°C° 0 mm 2 mps 689 mmHg 52%
    08:00 +9°C° 0 mm 2 mps 690 mmHg 49%
    09:00 +11°C° 0 mm 1 mps 690 mmHg 42%
    10:00 +13°C° 0 mm 1 mps 690 mmHg 36%
    11:00 +14°C° 0 mm 1 mps 690 mmHg 30%
    12:00 +15°C° 0 mm 1 mps 690 mmHg 27%
    13:00 +16°C° 0 mm 1 mps 690 mmHg 25%
    14:00 +19°C° 0 mm 1 mps 690 mmHg 23%
    15:00 +18°C° 0 mm 1 mps 690 mmHg 23%
    16:00 +17°C° 0 mm 2 mps 690 mmHg 24%
    17:00 +17°C° 0 mm 2 mps 690 mmHg 25%
    18:00 +16°C° 0 mm 1 mps 691 mmHg 28%
    19:00 +16°C° 0 mm 1 mps 691 mmHg 31%
    20:00 +15°C° 0 mm 1 mps 691 mmHg 34%
    21:00 +14°C° 0 mm 1 mps 691 mmHg 36%
    22:00 +14°C° 0 mm 1 mps 691 mmHg 39%
    23:00 +13°C° 0 mm 1 mps 691 mmHg 41%

    27 March, Wednesday

    Time Temperature Precipitation Wind Pressure Humidity
    00:00 +13°C° 0 mm 1 mps 691 mmHg 44%
    01:00 +12°C° 0 mm 1 mps 691 mmHg 47%
    02:00 +12°C° 0 mm 1 mps 691 mmHg 49%
    03:00 +11°C° 0 mm 1 mps 691 mmHg 51%
    04:00 +11°C° 0 mm 1 mps 691 mmHg 53%
    05:00 +11°C° 0 mm 1 mps 692 mmHg 55%
    06:00 +12°C° 0 mm 1 mps 692 mmHg 51%
    07:00 +13°C° 0 mm 1 mps 693 mmHg 46%
    08:00 +14°C° 0 mm 1 mps 693 mmHg 42%
    09:00 +15°C° 0 mm 1 mps 693 mmHg 37%
    10:00 +16°C° 0 mm 1 mps 693 mmHg 32%
    11:00 +19°C° 0 mm 1 mps 694 mmHg 28%
    12:00 +19°C° 0 mm 1 mps 693 mmHg 25%
    13:00 +20°C° 0 mm 1 mps 693 mmHg 23%
    14:00 +20°C° 0 mm 2 mps 692 mmHg 20%
    15:00 +20°C° 0 mm 2 mps 692 mmHg 20%
    16:00 +20°C° 0 mm 2 mps 693 mmHg 21%
    17:00 +20°C° 0 mm 3 mps 693 mmHg 21%
    18:00 +19°C° 0 mm 2 mps 693 mmHg 23%
    19:00 +18°C° 0 mm 2 mps 693 mmHg 26%
    20:00 +17°C° 0 mm 2 mps 693 mmHg 29%
    21:00 +18°C° 0 mm 1 mps 693 mmHg 31%
    22:00 +16°C° 0 mm 1 mps 693 mmHg 32%
    23:00 +15°C° 0 mm 1 mps 692 mmHg 34%
    Show more